Погода в Рахье

Россия / Санкт-Петербург и Ленинградская область     60°05′34″N   30°50′25″E
темп.,
°C
ветер,
м/с
пор.,
м/с
влажн.,
%
обл.,
%
осадки,
мм/ч
давл.,
гПа
погр.,
м
8 марта, пн
пн800:00−7ссв51190100 0.6 997876
03:00−8с51188100 0.8 1001815
06:00−10ссв41091100 0.1 1004771
09:00−10ссв4989100 0.3 1007648
12:00−9с4784100 0.1 1010637
15:00−9с4683100 0.1 1012644
18:00−11с3790100 0.0 1014472
21:00−13ссз279583 0.1 1016229
9 марта, вт
вт900:00−14св259689 0.1 1017220
03:00−17св129894 0.2 101923
06:00−18в1299100 0.1 102038
09:00−19всв2596100 0.1 1022262
12:00−17всв248794 0.0 1023392
15:00−16всв358485 0.0 1024393
18:00−18всв36900 0.0 1025293
21:00−21в24960 0.0 1027110
10 марта, ср
ср1000:00−22в22930 0.0 102947
03:00−22в22910 0.0 102938
06:00−22вюв12860 0.0 103022
09:00−19вюв00770 0.0 103135
12:00−12ю016258 0.0 1031247
15:00−8ссв015946 0.0 1031471
18:00−11в12780 0.0 103021
21:00−15юв12840 0.0 103120
11 марта, чт
чт1100:00−16ююв22820 0.0 103021
03:00−16ююв23860 0.0 102936
06:00−16ююв26870 0.0 1028133
09:00−13ююв411790 0.0 1026399
12:00−8ююв511610 0.0 1024677
15:00−7ю510757 0.0 1022671
18:00−8ююв4108895 0.0 1019534
21:00−9ю5138893 0.0 1017528
12 марта, пт
пт1200:00−9ю5139046 0.0 1014525
03:00−10ююв5148870 0.0 1012628
06:00−9ююв61685100 0.0 1008680
09:00−8ююв61580100 0.0 1005757
12:00−6ююв71488100 0.3 1003929
15:00−5ююв61389100 1.1 1001921
18:00−4ююв61293100 1.1 999887
21:00−4ююв51295100 2.4 998649